Location: Recife
(8.0585°S, 34.8848°W)
Time: 19:58:14
(UTC-03:00)

Vanguard 2 Rocket - Pass Details

Date: 15 April 2026
Orbit: 553 x 3286 km, 32.9° (Epoch: 13 May)

Event Time Altitude Azimuth Distance (km) Brightness Sun altitude
Exits shadow 04:59:22 - 290° (WNW) 3,111 9.1 -6.3°
Reaches altitude 10° 05:00:47 10° 287° (WNW) 2,617 8.7 -6.0°
Maximum altitude 05:07:00 59° 208° (SSW) 1,479 7.8 -4.5°
Drops below altitude 10° 05:18:08 10° 131° (SE) 4,539 11.1 -1.7°
Sets 05:22:52 0° 127° (SE) 5,997 11.8 -0.6°
